TimeCDT,TemperatureF,Dew PointF,Humidity,Sea Level PressureIn,VisibilityMPH,Wind Direction,Wind SpeedMPH,Gust SpeedMPH,PrecipitationIn,Events,Conditions,WindDirDegrees,DateUTC
12:53 AM,66.0,57.9,75,29.83,10.0,NNW,3.5,-,N/A,,Clear,340,2013-06-10 05:53:00
1:53 AM,64.0,57.0,78,29.83,10.0,WNW,3.5,-,N/A,,Clear,290,2013-06-10 06:53:00
2:53 AM,63.0,55.9,78,29.82,10.0,West,4.6,-,N/A,,Clear,280,2013-06-10 07:53:00
3:53 AM,62.1,55.9,80,29.83,10.0,West,4.6,-,N/A,,Clear,270,2013-06-10 08:53:00
4:53 AM,62.1,55.9,80,29.83,10.0,WNW,5.8,-,N/A,,Clear,290,2013-06-10 09:53:00
5:53 AM,62.1,55.0,78,29.84,10.0,NW,6.9,-,N/A,,Clear,320,2013-06-10 10:53:00
6:53 AM,63.0,55.9,78,29.86,10.0,North,4.6,-,N/A,,Clear,350,2013-06-10 11:53:00
7:53 AM,66.0,57.9,75,29.86,10.0,NW,6.9,-,N/A,,Clear,320,2013-06-10 12:53:00
8:53 AM,68.0,57.0,68,29.88,10.0,NNW,8.1,-,N/A,,Clear,330,2013-06-10 13:53:00
9:53 AM,70.0,57.9,65,29.88,10.0,West,4.6,-,N/A,,Clear,280,2013-06-10 14:53:00
10:53 AM,73.9,59.0,59,29.88,10.0,Variable,4.6,-,N/A,,Clear,0,2013-06-10 15:53:00
11:53 AM,77.0,57.0,50,29.88,10.0,Calm,Calm,-,N/A,,Clear,0,2013-06-10 16:53:00
12:53 PM,80.1,57.0,45,29.87,10.0,Variable,3.5,-,N/A,,Clear,0,2013-06-10 17:53:00
1:53 PM,82.0,55.9,41,29.86,10.0,Calm,Calm,-,N/A,,Clear,0,2013-06-10 18:53:00
2:53 PM,82.0,55.9,41,29.85,10.0,South,5.8,-,N/A,,Clear,180,2013-06-10 19:53:00
3:53 PM,84.9,55.0,36,29.85,10.0,Calm,Calm,-,N/A,,Clear,0,2013-06-10 20:53:00
4:53 PM,84.0,57.9,41,29.85,10.0,South,5.8,-,N/A,,Clear,190,2013-06-10 21:53:00
5:53 PM,84.0,57.9,41,29.82,10.0,SSE,6.9,-,N/A,,Clear,150,2013-06-10 22:53:00
6:53 PM,82.0,60.1,47,29.81,10.0,South,8.1,-,N/A,,Clear,180,2013-06-10 23:53:00
7:53 PM,79.0,61.0,54,29.82,10.0,SSE,6.9,-,N/A,,Clear,160,2013-06-11 00:53:00
8:53 PM,77.0,63.0,62,29.82,10.0,SE,4.6,-,N/A,,Clear,140,2013-06-11 01:53:00
9:53 PM,75.9,62.1,62,29.82,10.0,SE,6.9,-,N/A,,Clear,140,2013-06-11 02:53:00
10:53 PM,73.9,62.1,66,29.83,10.0,SSE,6.9,-,N/A,,Clear,150,2013-06-11 03:53:00
11:53 PM,73.9,63.0,68,29.82,10.0,SSE,9.2,-,N/A,,Clear,150,2013-06-11 04:53:00